Goodland, KS

9:55 PM MST on November 19, 2017 (GMT -0700)
Renner-Goodland Municipal

Weather History for KGLD - August, 2012

Change the Weather History Date:

Friday, August 3, 2012

  Actual Average Record
Temperature  
Mean Temperature 81 °F 75 °F  
Max Temperature 97 °F 89 °F 106 °F (1916)
Min Temperature 65 °F 62 °F 44 °F (1974)
Degree Days  
Heating Degree Days 0 0  
Month to date heating degree days 0 0  
Since 1 June heating degree days 1 41  
Since 1 July heating degree days 0 4  
Cooling Degree Days 16 10  
Month to date cooling degree days 52 32  
Year to date cooling degree days 992 586  
Since 1 June cooling degree days 904 545  
Growing Degree Days 30 (Base 50)    
Moisture  
Dew Point 58 °F    
Average Humidity 51    
Maximum Humidity 81    
Minimum Humidity 20    
Precipitation  
Precipitation T in 0.10 in 1.29 in (1992)
Month to date precipitation 0.18 0.32  
Year to date precipitation 7.44 13.52  
Snow  
Snow 0.00 in 0.00 in - ()
Month to date snowfall 0.0 0.0  
Since 1 June snowfall 0.0 0.0  
Since 1 July snowfall 0.0 0.0  
Snow Depth 0.00 in    
Sea Level Pressure  
Sea Level Pressure 29.78 in    
Wind  
Wind Speed 12 mph (South)    
Max Wind Speed 32 mph    
Max Gust Speed 39 mph    
Visibility 10 miles    
Events Rain , Thunderstorm    
T = Trace of Precipitation, MM = Missing Value Source: NWS Daily Summary

Daily Weather History Graph

Daily Weather History Graph

Search for Another Location

Airport or City:

Trip Planner

Search our weather history database for the weather conditions in past years. The results will help you decide how hot, cold, wet, or windy it might be!

Date:

Astronomy

Aug. 03, 2012 Rise Set
Actual Time 5:48 AM MDT 7:56 PM MDT
Civil Twilight 5:19 AM MDT 8:25 PM MDT
Nautical Twilight 4:42 AM MDT 9:02 PM MDT
Astronomical Twilight 4:03 AM MDT 9:41 PM MDT
Moon 8:37 PM MDT (8/3) 7:33 AM MDT (8/3)
Length of Visible Light 15h 06m
Length of Day
14h 07m
Full, 97% of the Moon is Illuminated
Aug 3
Full
Aug 9
Last Quarter
Aug 17
New
Aug 24
First Quarter
Aug 31
Full

Hourly Weather History & Observations

Time (MDT) Temp. Heat Index Dew Point Humidity Pressure Visibility Wind Dir Wind Speed Gust Speed Precip Events Conditions
12:02 AM 69.8 °F - 60.8 °F 73% 30.00 in 9.0 mi South 24.2 mph 36.8 mph 0.01 in Rain Light Rain
12:11 AM 69.8 °F - 59.0 °F 68% 30.01 in 10.0 mi SSW 23.0 mph 29.9 mph 0.02 in Rain , Thunderstorm Light Rain
12:26 AM 68.0 °F - 59.0 °F 73% 29.98 in 10.0 mi South 27.6 mph 35.7 mph 0.02 in Rain Light Rain
12:53 AM 66.9 °F - 57.9 °F 73% 29.79 in 10.0 mi SSE 31.1 mph 39.1 mph 0.03 in Rain Light Rain
1:53 AM 68.0 °F - 59.0 °F 73% 29.78 in 10.0 mi South 17.3 mph - 0.00 in   Clear
2:53 AM 66.9 °F - 59.0 °F 76% 29.78 in 10.0 mi South 13.8 mph - N/A   Clear
3:53 AM 68.0 °F - 57.2 °F 68% 29.91 in 10.0 mi South 15.0 mph - N/A   Clear
4:53 AM 68.0 °F - 57.9 °F 70% 29.77 in 10.0 mi SSW 11.5 mph - N/A   Clear
5:53 AM 66.0 °F - 59.0 °F 78% 29.79 in 10.0 mi WSW 11.5 mph - N/A   Clear
6:53 AM 66.9 °F - 61.0 °F 81% 29.81 in 10.0 mi SW 10.4 mph - N/A   Clear
7:53 AM 71.1 °F - 62.1 °F 73% 29.81 in 10.0 mi SSW 5.8 mph - N/A   Clear
8:53 AM 77.0 °F - 60.1 °F 56% 29.81 in 10.0 mi SSW 10.4 mph - N/A   Clear
9:53 AM 82.0 °F 81.7 °F 57.0 °F 42% 29.79 in 10.0 mi SSW 10.4 mph - N/A   Clear
10:53 AM 84.9 °F 84.4 °F 59.0 °F 41% 29.78 in 10.0 mi SE 5.8 mph - N/A   Clear
11:53 AM 89.1 °F 88.0 °F 57.9 °F 35% 29.77 in 10.0 mi SSE 9.2 mph 16.1 mph N/A   Clear
12:53 PM 91.0 °F 89.7 °F 57.0 °F 32% 29.76 in 10.0 mi South 12.7 mph 20.7 mph N/A   Clear
1:53 PM 93.0 °F 92.0 °F 57.9 °F 31% 29.73 in 10.0 mi South 16.1 mph 23.0 mph N/A   Clear
2:53 PM 95.0 °F 92.7 °F 54.0 °F 25% 29.72 in 10.0 mi SSE 15.0 mph 20.7 mph N/A   Clear
3:53 PM 95.0 °F - 52.0 °F 23% 29.70 in 10.0 mi SSW 5.8 mph - N/A   Clear
4:53 PM 95.0 °F - 48.9 °F 21% 29.68 in 10.0 mi South 10.4 mph - N/A   Clear
5:53 PM 95.0 °F - 51.1 °F 22% 29.68 in 10.0 mi SSE 11.5 mph - N/A   Clear
6:53 PM 91.9 °F 89.5 °F 54.0 °F 27% 29.68 in 10.0 mi SSE 8.1 mph - N/A   Clear
7:53 PM 84.0 °F 83.3 °F 57.0 °F 40% 29.70 in 10.0 mi SE 9.2 mph - N/A   Clear
8:53 PM 75.9 °F - 61.0 °F 60% 29.70 in 10.0 mi SSE 6.9 mph - N/A   Clear
9:53 PM 75.9 °F - 60.1 °F 58% 29.70 in 10.0 mi South 11.5 mph - N/A   Clear
10:53 PM 77.0 °F - 60.1 °F 56% 29.75 in 10.0 mi WSW 12.7 mph - N/A   Clear
11:53 PM 75.9 °F - 57.9 °F 54% 29.76 in 10.0 mi SSE 4.6 mph - N/A   Partly Cloudy